TimeMST,TemperatureF,Dew PointF,Humidity,Sea Level PressureIn,VisibilityMPH,Wind Direction,Wind SpeedMPH,Gust SpeedMPH,PrecipitationIn,Events,Conditions,WindDirDegrees,DateUTC
12:53 AM,23.0,12.9,65,30.01,10.0,South,6.9,-,N/A,,Clear,190,2013-03-09 07:53:00
1:53 AM,21.9,12.9,68,30.03,10.0,SSW,8.1,-,N/A,,Clear,210,2013-03-09 08:53:00
2:53 AM,23.0,12.0,63,30.02,10.0,South,5.8,-,N/A,,Clear,190,2013-03-09 09:53:00
3:53 AM,21.9,10.9,63,30.03,10.0,SSW,5.8,-,N/A,,Clear,210,2013-03-09 10:53:00
4:53 AM,21.9,10.9,63,30.06,10.0,SW,3.5,-,N/A,,Clear,220,2013-03-09 11:53:00
5:53 AM,21.9,10.0,60,30.08,10.0,SSW,5.8,-,N/A,,Clear,210,2013-03-09 12:53:00
6:53 AM,18.0,10.0,71,30.13,10.0,WSW,5.8,-,N/A,,Clear,240,2013-03-09 13:53:00
7:53 AM,24.1,12.9,62,30.19,10.0,Calm,Calm,-,N/A,,Clear,0,2013-03-09 14:53:00
8:53 AM,24.1,16.0,71,30.20,10.0,SW,4.6,-,N/A,,Clear,230,2013-03-09 15:53:00
9:53 AM,30.9,15.1,52,30.19,10.0,Calm,Calm,-,N/A,,Clear,0,2013-03-09 16:53:00
10:53 AM,34.0,16.0,48,30.22,10.0,NW,4.6,-,N/A,,Clear,320,2013-03-09 17:53:00
11:53 AM,37.0,12.9,37,30.22,10.0,North,5.8,20.7,N/A,,Clear,360,2013-03-09 18:53:00
12:53 PM,39.0,12.9,34,30.20,10.0,North,11.5,16.1,N/A,,Clear,360,2013-03-09 19:53:00
1:53 PM,39.0,12.9,34,30.19,10.0,Calm,Calm,-,N/A,,Clear,0,2013-03-09 20:53:00
2:53 PM,39.9,12.0,32,30.19,10.0,Calm,Calm,-,N/A,,Clear,0,2013-03-09 21:53:00
3:53 PM,41.0,12.9,32,30.20,10.0,West,4.6,-,N/A,,Clear,260,2013-03-09 22:53:00
4:53 PM,41.0,12.0,31,30.22,10.0,Calm,Calm,-,N/A,,Clear,0,2013-03-09 23:53:00
5:53 PM,39.9,12.0,32,30.24,10.0,Calm,Calm,-,N/A,,Clear,0,2013-03-10 00:53:00
6:53 PM,35.1,12.9,40,30.31,10.0,Calm,Calm,-,N/A,,Clear,0,2013-03-10 01:53:00
7:53 PM,27.0,16.0,63,30.33,10.0,Variable,3.5,-,N/A,,Clear,0,2013-03-10 02:53:00
8:53 PM,28.9,16.0,58,30.35,10.0,South,6.9,-,N/A,,Clear,170,2013-03-10 03:53:00
9:53 PM,28.9,16.0,58,30.33,10.0,South,5.8,-,N/A,,Clear,170,2013-03-10 04:53:00
10:53 PM,27.0,16.0,63,30.33,10.0,South,6.9,-,N/A,,Clear,190,2013-03-10 05:53:00
11:53 PM,28.0,16.0,61,30.32,10.0,South,9.2,-,N/A,,Clear,180,2013-03-10 06:53:00